User: anonymous   Login
Location: Iesi
(43.5167°N, 13.2333°E)
Time: 11:32:07
(UTC+00:00)
Language:

Cosmos 1153 Rocket - Orbit

View from above orbital plane
View from above orbital plane
View from above satellite
View from above satellite

Ground track
Ground track

The orbit data is extracted from the following two-line orbital elements,

1 11681U 80007B   20304.88425917 +.00000032 +00000-0 +17123-4 0  9998
2 11681 082.9344 219.8317 0036738 149.5453 276.1681 13.75454782041684
Epoch (UTC): 30 October 2020 21:13:19
Eccentricity: 0.0036738
inclination: 82.9344°
perigee height: 953 km
apogee height: 1007 km
right ascension of ascending node: 219.8317°
argument of perigee: 149.5453°
revolutions per day: 13.75454782
mean anomaly at epoch: 276.1681°
orbit number at epoch: 4168

The dashed part of the orbit path shows where the satellite is in the earth's shadow,  

DLR